Weather History for 76405 - November, 2013

Change the Weather History Date:

Tuesday, November 19, 2013

  Actual Average Record
Temperature  
Mean Temperature 72 °F -  
Max Temperature 84 °F 79 °F - ()
Min Temperature 61 °F 56 °F - ()
Cooling Degree Days 8    
Growing Degree Days 22 (Base 50)    
Moisture  
Dew Point 59 °F    
Average Humidity 62    
Maximum Humidity 82    
Minimum Humidity 45    
Precipitation  
Precipitation 0.00 in - - ()
Sea Level Pressure  
Sea Level Pressure 29.94 in    
Wind  
Wind Speed 5 mph ()    
Max Wind Speed 12 mph    
Max Gust Speed -    
Visibility 10.3 miles    
Events      
T = Trace of Precipitation, MM = Missing Value Source: Averaged Metar Reports

Daily Weather History Graph

Daily Weather History Graph

Search for Another Location

Airport or City:

Trip Planner

Search our weather history database for the weather conditions in past years. The results will help you decide how hot, cold, wet, or windy it might be!

Date:

Astronomy

Nov. 19, 2013 Rise Set
Actual Time 6:39 AM MST 5:33 PM MST
Civil Twilight 6:15 AM MST 5:57 PM MST
Nautical Twilight 5:47 AM MST 6:25 PM MST
Astronomical Twilight 5:20 AM MST 6:52 PM MST
Moon 7:29 PM MST (11/19) 8:19 AM MST (11/19)
Length of Visible Light 11h 42m
Length of Day
10h 54m
Waning Gibbous, 96% of the Moon is Illuminated
Nov 19
Waning Gibbous
Nov 25
Last Quarter
Dec 2
New
Dec 9
First Quarter
Dec 17
Full

Hourly Weather History & Observations

Time (MST) Temp. Dew Point Humidity Pressure Visibility Wind Dir Wind Speed Gust Speed Precip Events Conditions
1:50 AM 67 °F 61 °F 76% 29.96 in 2 mi South 4.5 mph - -   Scattered Clouds
4:50 AM 65 °F 56 °F 66% 29.94 in 2 mi South 4.5 mph - -   Partly Cloudy
5:47 AM 59.0 °F 53.6 °F 82% 29.95 in 10.0 mi SSW 4.6 mph - N/A   Partly Cloudy
7:50 AM 65 °F 57 °F 69% 29.97 in 12 mi South 2.2 mph - -   Scattered Clouds
7:50 AM 60.8 °F 53.6 °F 77% 30.11 in 10.0 mi South 6.9 mph - N/A   Partly Cloudy
8:44 AM 68.0 °F 55.4 °F 64% 29.99 in 10.0 mi South 6.9 mph - N/A   Partly Cloudy
9:40 AM 73.4 °F 59.0 °F 61% 29.98 in 12.0 mi Calm Calm - N/A   Partly Cloudy
10:44 AM 75.2 °F 60.8 °F 61% 30.06 in 12.0 mi North 6.9 mph - N/A   Partly Cloudy
10:50 AM 79 °F 63 °F 49% 29.95 in 19 mi WNW 2.2 mph - -  
11:41 AM 77.0 °F 60.8 °F 57% 29.93 in 12.0 mi NW 4.6 mph - N/A   Clear
12:41 PM 78.8 °F 59.0 °F 51% 29.89 in 12.0 mi North 9.2 mph - N/A   Clear
1:41 PM 78.8 °F 60.8 °F 54% 30.01 in 12.0 mi North 10.4 mph - N/A   Clear
1:50 PM 83 °F 65 °F 45% 29.86 in 19 mi NNW 6.7 mph - -  
2:44 PM 78.8 °F 60.8 °F 54% 29.86 in 10.0 mi North 9.2 mph - N/A   Clear
3:40 PM 78.8 °F 59.0 °F 51% 29.85 in 10.0 mi NNW 11.5 mph - N/A   Clear
4:40 PM 80 °F 64 °F 48% 29.91 in 19 mi North 6.7 mph - -  
4:57 PM 77.0 °F 59.0 °F 54% 29.86 in 10.0 mi North 9.2 mph - N/A   Clear
5:44 PM 75.2 °F 59.0 °F 57% 29.87 in 10.0 mi Calm Calm - N/A   Clear
6:43 PM 73.4 °F 59.0 °F 61% 29.88 in 10.0 mi Calm Calm - N/A   Clear
7:40 PM 74 °F 60 °F 53% 29.93 in 2 mi South 4.5 mph - -  
7:48 PM 69.8 °F 57.2 °F 64% 30.01 in 10.0 mi SE 9.2 mph - N/A   Clear
8:41 PM 68.0 °F 57.2 °F 68% 29.91 in 10.0 mi South 9.2 mph - N/A   Clear
9:46 PM 66.2 °F 57.2 °F 73% 29.92 in 10.0 mi SSE 6.9 mph - N/A   Clear
10:50 PM 68 °F 60 °F 69% 29.91 in 2 mi South 6.7 mph - -  
10:55 PM 64.4 °F 57.2 °F 77% 30.02 in 10.0 mi SSE 5.8 mph - N/A   Clear